Powrót do katalogu

THORAD AGENA D DEB

AktywnyLEO
NORAD 6014·DEBRIS·🇺🇸 United States

Wystrzelony Apr 8, 1970 z Vandenberg Space Force Base

Loading…

Następne Przeloty (najbliższe 24 godziny)

TLE

ŚwieżeSource: Space-Track

Epoka: Sep 14, 2026, 14:07 UTC

1  6014U 70025MR  26257.58844060  .00002083  00000-0  12964-2 0  9999
2  6014 100.0322  31.5580 0052516 260.3688  99.1541 14.05589587831604

Śledź THORAD AGENA D DEB w czasie rzeczywistym z AllMySat

Download on the App Store